contact:dominique.lefevre@mio.osupytheas.fr, maurice.libes@osupytheas.fr, didier.mallarino@osupytheas.fr
Project:EMSO http://www.emso-fr.org/EMSO-France
Depth: 2436.0 m
Title:EMSO Ligure Ouest : Data MII capteur AQUADOPP
Date,Latitude,Longitude,X_East,Y_North,Z_Up,Amplitude_X,Amplitude_Y,Amplitude_Z,Batterie,SoundSpeed,Heading,Pitch,Roll,Pressure,TIS,Speed,Direction
, degrees North, degrees East, m.s-1, m.s-1,m.s-1, 1, 1, 1, Volt, m.s-1, degree, degree, degree, dbar, degree_C, m.s-1, degree
2023-07-26T00:04:03,42.805,6.029,-0.004,0.005,-0.042,102.0,102.0,102.0,13.4,1505.2,327.2,-0.8,1.8,2471.466,13.29,0.006,321.3
2023-07-26T00:07:03,42.805,6.029,-0.005,0.006,-0.032,101.0,102.0,101.0,13.4,1505.2,321.7,-0.8,1.8,2471.482,13.29,0.007,320.2
2023-07-26T00:10:03,42.805,6.029,0.0,-0.015,-0.061,103.0,101.0,101.0,13.4,1505.2,329.8,-0.7,1.9,2471.458,13.29,0.015,180.0
2023-07-26T00:13:03,42.805,6.029,-0.018,0.017,-0.007,103.0,101.0,101.0,13.4,1505.2,331.3,-0.7,1.8,2471.487,13.29,0.024,313.4
2023-07-26T00:16:03,42.805,6.029,-0.023,0.005,-0.079,104.0,102.0,101.0,13.4,1505.2,326.8,-0.8,1.8,2471.453,13.29,0.023,282.3
2023-07-26T00:19:03,42.805,6.029,-0.027,0.001,-0.043,104.0,102.0,100.0,13.4,1505.2,351.7,-0.7,1.8,2471.453,13.29,0.027,272.1
2023-07-26T00:22:03,42.805,6.029,-0.011,-0.004,-0.042,102.0,102.0,101.0,13.4,1505.2,327.3,-0.8,1.8,2471.429,13.29,0.011,250.0
2023-07-26T00:25:03,42.805,6.029,-0.025,0.03,-0.039,103.0,102.0,101.0,13.4,1505.2,336.3,-0.8,1.8,2471.46,13.29,0.039,320.2
2023-07-26T00:28:03,42.805,6.029,-0.005,0.0,-0.03,102.0,103.0,102.0,13.4,1505.2,326.0,-0.8,1.8,2471.413,13.29,0.005,270.0
2023-07-26T00:31:03,42.805,6.029,-0.027,0.025,-0.035,102.0,102.0,101.0,13.4,1505.2,329.2,-0.7,1.8,2471.445,13.29,0.036,312.8
2023-07-26T00:34:03,42.805,6.029,-0.028,0.008,-0.013,102.0,102.0,101.0,13.4,1505.2,330.3,-0.7,1.8,2471.399,13.29,0.029,285.9
2023-07-26T00:37:03,42.805,6.029,-0.002,0.0,-0.053,103.0,103.0,101.0,13.4,1505.2,331.6,-0.7,1.8,2471.436,13.29,0.002,270.0
2023-07-26T00:40:03,42.805,6.029,-0.017,0.026,-0.028,102.0,102.0,101.0,13.4,1505.2,339.7,-0.8,1.8,2471.436,13.29,0.031,326.8
2023-07-26T00:43:03,42.805,6.029,0.019,0.006,-0.025,102.0,101.0,101.0,13.4,1505.2,327.4,-0.8,1.8,2471.455,13.29,0.019,72.5
2023-07-26T00:46:03,42.805,6.029,-0.033,0.035,-0.037,102.0,103.0,102.0,13.3,1505.2,343.6,-0.8,1.8,2471.431,13.29,0.048,316.7
2023-07-26T00:49:03,42.805,6.029,-0.02,-0.008,-0.047,103.0,101.0,101.0,13.4,1505.2,334.3,-0.8,1.8,2471.422,13.29,0.021,248.2
2023-07-26T00:52:03,42.805,6.029,-0.001,-0.003,-0.04,102.0,103.0,101.0,13.3,1505.2,350.1,-0.8,1.8,2471.406,13.29,0.003,198.4
2023-07-26T00:55:03,42.805,6.029,-0.032,0.027,-0.033,102.0,101.0,101.0,13.4,1505.2,329.2,-0.8,1.8,2471.421,13.29,0.041,310.2
2023-07-26T00:58:03,42.805,6.029,-0.021,0.011,-0.023,102.0,101.0,101.0,13.4,1505.2,341.9,-0.7,1.8,2471.41,13.29,0.023,297.6
2023-07-26T01:04:03,42.805,6.029,-0.021,0.028,0.011,103.0,102.0,102.0,13.4,1505.2,332.1,-0.8,1.8,2471.466,13.29,0.035,323.1
2023-07-26T01:07:03,42.805,6.029,-0.014,0.017,-0.023,101.0,104.0,101.0,13.4,1505.2,352.6,-0.8,1.8,2471.454,13.29,0.022,320.5
2023-07-26T01:10:03,42.805,6.029,-0.007,0.02,-0.019,101.0,102.0,101.0,13.3,1505.2,341.9,-0.8,1.8,2471.451,13.29,0.021,340.7
2023-07-26T01:13:03,42.805,6.029,-0.005,0.02,-0.04,102.0,101.0,101.0,13.4,1505.2,355.6,-0.8,1.8,2471.439,13.29,0.02,346.0
2023-07-26T01:16:03,42.805,6.029,-0.011,0.014,-0.044,104.0,101.0,100.0,13.4,1505.2,346.5,-0.8,1.8,2471.406,13.29,0.017,321.8
2023-07-26T01:19:03,42.805,6.029,-0.007,-0.003,-0.045,102.0,101.0,101.0,13.4,1505.2,341.2,-0.8,1.8,2471.428,13.29,0.007,246.8
2023-07-26T01:22:03,42.805,6.029,-0.033,0.015,-0.057,102.0,102.0,101.0,13.3,1505.2,332.9,-0.8,1.8,2471.42,13.29,0.036,294.4
2023-07-26T01:25:03,42.805,6.029,-0.004,-0.006,-0.043,104.0,101.0,100.0,13.4,1505.2,351.5,-0.8,1.8,2471.421,13.29,0.007,213.7
2023-07-26T01:28:03,42.805,6.029,-0.011,-0.016,-0.048,101.0,101.0,102.0,13.4,1505.2,326.0,-0.8,1.8,2471.414,13.29,0.019,214.5
2023-07-26T01:31:03,42.805,6.029,-0.003,-0.007,-0.054,101.0,104.0,100.0,13.4,1505.2,327.1,-0.8,1.8,2471.404,13.29,0.007,203.2
2023-07-26T01:34:03,42.805,6.029,-0.006,0.023,-0.019,102.0,101.0,101.0,13.3,1505.2,341.5,-0.8,1.8,2471.443,13.29,0.023,345.4
2023-07-26T01:37:03,42.805,6.029,-0.01,0.03,0.002,101.0,103.0,102.0,13.4,1505.2,337.2,-0.7,1.9,2471.436,13.29,0.031,341.6
2023-07-26T01:40:03,42.805,6.029,0.0,0.017,-0.024,102.0,101.0,102.0,13.4,1505.2,350.5,-0.8,1.8,2471.459,13.29,0.017,0.0
2023-07-26T01:43:03,42.805,6.029,0.0,0.0,-0.048,102.0,102.0,100.0,13.4,1505.2,333.9,-0.7,1.8,2471.403,13.29,0.0,0.0
2023-07-26T01:46:03,42.805,6.029,-0.042,-0.005,-0.067,102.0,100.0,101.0,13.4,1505.2,339.3,-0.7,1.8,2471.386,13.29,0.042,263.2
2023-07-26T01:49:03,42.805,6.029,-0.008,0.048,-0.032,102.0,101.0,101.0,13.3,1505.2,351.8,-0.8,1.8,2471.398,13.29,0.048,350.5
2023-07-26T01:52:03,42.805,6.029,-0.017,0.031,-0.02,102.0,102.0,101.0,13.4,1505.2,325.2,-0.7,1.8,2471.436,13.29,0.035,331.3
2023-07-26T01:55:03,42.805,6.029,-0.024,0.028,-0.015,103.0,100.0,102.0,13.4,1505.2,342.7,-0.8,1.8,2471.344,13.29,0.036,319.4
2023-07-26T01:58:03,42.805,6.029,-0.019,0.024,-0.022,101.0,102.0,101.0,13.4,1505.2,335.2,-0.8,1.8,2471.397,13.29,0.03,321.6
2023-07-26T02:04:03,42.805,6.029,-0.017,0.017,-0.007,102.0,101.0,101.0,13.3,1505.2,352.8,-0.8,1.8,2471.476,13.29,0.024,315.0
2023-07-26T02:07:03,42.805,6.029,-0.015,-0.004,-0.045,102.0,101.0,101.0,13.4,1505.2,331.0,-0.7,1.8,2471.428,13.29,0.015,255.1
2023-07-26T02:10:03,42.805,6.029,-0.028,0.0,-0.034,102.0,101.0,101.0,13.4,1505.2,333.8,-0.8,1.8,2471.432,13.29,0.028,270.0
2023-07-26T02:13:03,42.805,6.029,0.002,0.009,-0.033,101.0,101.0,101.0,13.4,1505.2,351.7,-0.7,1.8,2471.457,13.29,0.009,12.5
2023-07-26T02:16:03,42.805,6.029,-0.029,0.026,0.0,101.0,100.0,102.0,13.4,1505.2,338.3,-0.7,1.8,2471.411,13.29,0.038,311.9
2023-07-26T02:19:03,42.805,6.029,-0.02,0.015,-0.053,101.0,101.0,101.0,13.3,1505.2,342.6,-0.8,1.8,2471.418,13.29,0.025,306.9
2023-07-26T02:22:03,42.805,6.029,-0.002,0.021,0.019,100.0,101.0,101.0,13.4,1505.2,352.8,-0.8,1.8,2471.428,13.29,0.021,354.6
2023-07-26T02:25:03,42.805,6.029,-0.019,0.004,-0.044,102.0,101.0,101.0,13.4,1505.2,346.9,-0.7,1.8,2471.379,13.29,0.019,281.9
2023-07-26T02:28:03,42.805,6.029,-0.029,0.0,-0.073,100.0,103.0,101.0,13.4,1505.2,325.7,-0.8,1.8,2471.415,13.29,0.028,270.0
2023-07-26T02:31:03,42.805,6.029,-0.024,0.031,-0.048,102.0,101.0,102.0,13.4,1505.2,344.2,-0.8,1.8,2471.389,13.29,0.039,322.3
2023-07-26T02:34:03,42.805,6.029,-0.016,0.004,-0.038,101.0,102.0,101.0,13.4,1505.2,347.8,-0.8,1.8,2471.445,13.29,0.016,284.0
2023-07-26T02:37:03,42.805,6.029,-0.027,0.008,-0.009,103.0,103.0,99.0,13.4,1505.2,344.5,-0.8,1.8,2471.425,13.29,0.028,286.5
2023-07-26T02:40:03,42.805,6.029,0.03,0.015,0.001,100.0,102.0,101.0,13.3,1505.2,351.8,-0.7,1.8,2471.414,13.29,0.033,63.4
2023-07-26T02:43:03,42.805,6.029,-0.002,-0.008,-0.047,102.0,100.0,101.0,13.4,1505.2,321.9,-0.8,1.8,2471.401,13.29,0.008,194.0
2023-07-26T02:46:03,42.805,6.029,-0.043,0.01,-0.053,102.0,101.0,102.0,13.4,1505.2,333.4,-0.7,1.8,2471.4,13.29,0.044,283.1
2023-07-26T02:49:03,42.805,6.029,-0.03,0.022,-0.058,102.0,101.0,102.0,13.4,1505.2,347.7,-0.8,1.8,2471.383,13.29,0.037,306.3
2023-07-26T02:52:03,42.805,6.029,-0.01,0.032,0.006,101.0,102.0,101.0,13.4,1505.2,354.5,-0.8,1.8,2471.422,13.29,0.033,342.6
2023-07-26T02:55:03,42.805,6.029,-0.026,0.01,-0.038,102.0,102.0,101.0,13.4,1505.2,335.9,-0.8,1.8,2471.414,13.29,0.027,291.0
2023-07-26T02:58:03,42.805,6.029,-0.021,0.016,-0.015,102.0,102.0,100.0,13.3,1505.2,347.3,-0.8,1.8,2471.35,13.29,0.026,307.3
2023-07-26T03:04:03,42.805,6.029,-0.033,-0.012,-0.092,102.0,102.0,101.0,13.4,1505.2,351.7,-0.8,1.8,2471.418,13.29,0.035,250.0
2023-07-26T03:07:03,42.805,6.029,-0.022,0.006,-0.023,102.0,103.0,100.0,13.3,1505.2,346.5,-0.7,1.8,2471.411,13.29,0.022,285.3
2023-07-26T03:10:03,42.805,6.029,-0.025,0.019,-0.031,102.0,101.0,101.0,13.4,1505.2,341.8,-0.8,1.8,2471.382,13.29,0.031,307.2
2023-07-26T03:13:03,42.805,6.029,-0.04,0.01,-0.043,102.0,102.0,100.0,13.4,1505.2,324.2,-0.7,1.8,2471.396,13.29,0.041,284.0
2023-07-26T03:16:03,42.805,6.029,0.014,0.009,-0.003,101.0,102.0,101.0,13.3,1505.2,321.9,-0.8,1.8,2471.368,13.29,0.016,57.3
2023-07-26T03:19:03,42.805,6.029,-0.029,0.009,-0.044,103.0,99.0,101.0,13.4,1505.2,343.7,-0.8,1.8,2471.338,13.29,0.03,287.2
2023-07-26T03:22:03,42.805,6.029,-0.006,-0.004,-0.048,102.0,102.0,101.0,13.3,1505.2,351.7,-0.8,1.8,2471.42,13.29,0.007,236.3
2023-07-26T03:25:03,42.805,6.029,-0.022,0.024,-0.038,102.0,101.0,101.0,13.4,1505.2,345.9,-0.8,1.8,2471.406,13.29,0.032,317.5
2023-07-26T03:28:03,42.805,6.029,-0.022,0.038,0.014,102.0,102.0,101.0,13.3,1505.2,326.3,-0.8,1.9,2471.392,13.29,0.043,329.9
2023-07-26T03:31:03,42.805,6.029,-0.04,0.001,-0.037,102.0,101.0,101.0,13.3,1505.2,331.6,-0.8,1.8,2471.348,13.29,0.04,271.4
2023-07-26T03:34:03,42.805,6.029,-0.011,-0.014,-0.077,102.0,102.0,101.0,13.4,1505.2,330.2,-0.7,1.8,2471.352,13.29,0.017,218.2
2023-07-26T03:37:03,42.805,6.029,-0.016,0.018,-0.054,101.0,102.0,101.0,13.4,1505.2,342.5,-0.7,1.8,2471.369,13.29,0.024,318.4
2023-07-26T03:40:03,42.805,6.029,0.002,0.012,-0.012,102.0,101.0,100.0,13.4,1505.2,330.2,-0.8,1.8,2471.387,13.29,0.012,9.5
2023-07-26T03:43:03,42.805,6.029,-0.021,0.01,-0.038,101.0,101.0,101.0,13.4,1505.2,329.9,-0.7,1.8,2471.389,13.29,0.023,295.5
2023-07-26T03:46:03,42.805,6.029,-0.02,0.036,0.0,101.0,101.0,101.0,13.4,1505.2,338.8,-0.8,1.8,2471.396,13.29,0.041,330.9
2023-07-26T03:49:03,42.805,6.029,-0.028,0.009,-0.018,101.0,102.0,100.0,13.4,1505.2,333.9,-0.8,1.8,2471.391,13.29,0.029,287.8
2023-07-26T03:52:03,42.805,6.029,-0.026,-0.001,-0.027,101.0,102.0,101.0,13.4,1505.2,324.7,-0.8,1.8,2471.374,13.29,0.026,267.8
2023-07-26T03:55:03,42.805,6.029,-0.022,0.011,-0.044,101.0,101.0,102.0,13.3,1505.2,350.9,-0.7,1.8,2471.341,13.29,0.024,296.6
2023-07-26T03:58:03,42.805,6.029,-0.028,0.02,-0.038,101.0,101.0,101.0,13.4,1505.2,334.4,-0.8,1.8,2471.348,13.29,0.034,305.5
2023-07-26T04:04:03,42.805,6.029,-0.032,0.041,-0.025,101.0,101.0,100.0,13.3,1505.2,329.2,-0.7,1.8,2471.379,13.29,0.052,322.0
2023-07-26T04:07:03,42.805,6.029,-0.018,0.034,-0.036,102.0,101.0,102.0,13.3,1505.2,349.9,-0.7,1.8,2471.413,13.29,0.038,332.1
2023-07-26T04:10:03,42.805,6.029,-0.013,0.014,-0.03,102.0,102.0,101.0,13.4,1505.2,345.6,-0.7,1.8,2471.387,13.29,0.019,317.1
2023-07-26T04:13:03,42.805,6.029,-0.009,-0.001,-0.048,102.0,100.0,102.0,13.4,1505.2,341.9,-0.8,1.8,2471.41,13.29,0.009,263.7
2023-07-26T04:16:03,42.805,6.029,-0.014,0.015,-0.035,102.0,102.0,101.0,13.4,1505.2,344.2,-0.7,1.8,2471.354,13.29,0.02,317.0
2023-07-26T04:19:03,42.805,6.029,-0.011,0.015,-0.058,101.0,101.0,101.0,13.4,1505.2,352.0,-0.8,1.8,2471.391,13.29,0.018,323.7
2023-07-26T04:22:03,42.805,6.029,-0.024,0.017,-0.049,102.0,102.0,101.0,13.4,1505.2,324.6,-0.8,1.8,2471.377,13.29,0.029,305.3
2023-07-26T04:25:03,42.805,6.029,-0.014,0.013,-0.024,101.0,102.0,102.0,13.3,1505.2,322.2,-0.8,1.8,2471.348,13.29,0.019,312.9
2023-07-26T04:28:03,42.805,6.029,-0.035,0.019,-0.038,102.0,102.0,101.0,13.4,1505.2,335.6,-0.8,1.8,2471.331,13.29,0.039,298.5
2023-07-26T04:31:03,42.805,6.029,-0.019,0.017,0.007,102.0,101.0,101.0,13.4,1505.2,332.9,-0.8,1.8,2471.358,13.29,0.025,311.8
2023-07-26T04:34:03,42.805,6.029,-0.014,-0.01,-0.033,102.0,102.0,102.0,13.3,1505.2,328.1,-0.8,1.8,2471.316,13.29,0.017,234.5
2023-07-26T04:37:03,42.805,6.029,-0.013,0.004,-0.057,102.0,103.0,101.0,13.4,1505.2,322.9,-0.8,1.8,2471.344,13.29,0.013,287.1
2023-07-26T04:40:03,42.805,6.029,-0.026,0.002,-0.035,102.0,103.0,101.0,13.3,1505.2,321.1,-0.8,1.8,2471.351,13.29,0.026,274.4
2023-07-26T04:43:03,42.805,6.029,-0.02,0.02,-0.011,101.0,102.0,102.0,13.4,1505.2,333.4,-0.8,1.8,2471.349,13.29,0.028,315.0
2023-07-26T04:46:03,42.805,6.029,-0.019,0.02,-0.017,100.0,101.0,102.0,13.4,1505.2,333.9,-0.8,1.8,2471.327,13.29,0.027,316.5
2023-07-26T04:49:03,42.805,6.029,-0.038,0.028,-0.059,102.0,102.0,102.0,13.4,1505.2,344.8,-0.8,1.8,2471.362,13.29,0.047,306.4
2023-07-26T04:52:03,42.805,6.029,-0.008,0.025,-0.028,101.0,102.0,101.0,13.4,1505.2,346.5,-0.8,1.8,2471.354,13.29,0.026,342.3
2023-07-26T04:55:03,42.805,6.029,-0.027,0.016,-0.033,102.0,101.0,101.0,13.4,1505.2,342.3,-0.8,1.8,2471.351,13.29,0.031,300.7
2023-07-26T04:58:03,42.805,6.029,-0.058,0.038,-0.052,102.0,101.0,101.0,13.3,1505.2,341.5,-0.7,1.8,2471.334,13.29,0.069,303.2
2023-07-26T05:04:03,42.805,6.029,-0.011,0.009,-0.041,102.0,101.0,101.0,13.4,1505.2,343.7,-0.8,1.8,2471.42,13.29,0.014,309.3
2023-07-26T05:07:03,42.805,6.029,-0.035,0.014,-0.041,102.0,101.0,100.0,13.4,1505.2,333.4,-0.8,1.8,2471.413,13.29,0.037,291.8
2023-07-26T05:10:03,42.805,6.029,-0.019,0.023,-0.027,102.0,102.0,102.0,13.4,1505.2,337.5,-0.8,1.8,2471.41,13.29,0.029,320.4
2023-07-26T05:13:03,42.805,6.029,-0.029,0.013,-0.023,102.0,102.0,101.0,13.3,1505.2,352.0,-0.8,1.8,2471.36,13.29,0.031,294.1
2023-07-26T05:16:03,42.805,6.029,-0.037,0.018,-0.047,102.0,102.0,101.0,13.4,1505.2,326.8,-0.8,1.8,2471.357,13.29,0.041,295.9
2023-07-26T05:19:03,42.805,6.029,-0.012,0.021,-0.004,103.0,101.0,101.0,13.4,1505.2,331.3,-0.8,1.8,2471.322,13.29,0.024,330.3
2023-07-26T05:22:03,42.805,6.029,-0.028,0.031,0.002,102.0,102.0,101.0,13.3,1505.2,324.8,-0.7,1.8,2471.31,13.29,0.041,317.9
2023-07-26T05:25:03,42.805,6.029,-0.04,0.021,-0.047,102.0,101.0,102.0,13.4,1505.2,339.7,-0.8,1.8,2471.367,13.29,0.045,297.7
2023-07-26T05:28:03,42.805,6.029,-0.017,0.032,-0.033,104.0,103.0,100.0,13.3,1505.2,332.9,-0.7,1.8,2471.321,13.29,0.036,332.0
2023-07-26T05:31:03,42.805,6.029,-0.035,0.011,-0.077,102.0,103.0,100.0,13.4,1505.2,340.7,-0.7,1.8,2471.343,13.29,0.036,287.4
2023-07-26T05:34:03,42.805,6.029,-0.034,0.019,-0.05,102.0,102.0,102.0,13.4,1505.2,341.1,-0.8,1.8,2471.309,13.29,0.038,299.2
2023-07-26T05:37:03,42.805,6.029,-0.031,0.018,-0.028,102.0,103.0,101.0,13.3,1505.2,331.4,-0.8,1.9,2471.333,13.29,0.035,300.1
2023-07-26T05:40:03,42.805,6.029,-0.032,0.029,-0.046,102.0,101.0,102.0,13.3,1505.2,343.4,-0.8,1.8,2471.309,13.29,0.043,312.2
2023-07-26T05:43:03,42.805,6.029,-0.002,0.004,-0.046,101.0,102.0,102.0,13.4,1505.2,336.1,-0.8,1.8,2471.33,13.29,0.004,333.4
2023-07-26T05:46:03,42.805,6.029,-0.011,0.021,-0.032,103.0,103.0,100.0,13.4,1505.2,336.0,-0.8,1.8,2471.295,13.29,0.023,332.4
2023-07-26T05:49:03,42.805,6.029,-0.015,0.038,-0.029,101.0,102.0,102.0,13.4,1505.2,346.5,-0.7,1.8,2471.33,13.29,0.04,338.5
2023-07-26T05:52:03,42.805,6.029,-0.019,0.04,-0.004,101.0,102.0,101.0,13.4,1505.2,343.4,-0.7,1.8,2471.306,13.29,0.044,334.6
2023-07-26T05:55:03,42.805,6.029,-0.032,0.032,-0.027,102.0,100.0,101.0,13.4,1505.2,343.4,-0.7,1.8,2471.335,13.29,0.045,315.0
2023-07-26T05:58:03,42.805,6.029,-0.034,0.015,-0.064,101.0,100.0,102.0,13.4,1505.2,324.7,-0.7,1.8,2471.309,13.29,0.037,293.8
2023-07-26T06:04:03,42.805,6.029,-0.007,0.031,-0.019,102.0,103.0,101.0,13.4,1505.2,352.8,-0.8,1.8,2471.359,13.29,0.031,347.3
2023-07-26T06:07:03,42.805,6.029,-0.006,0.022,-0.013,102.0,102.0,100.0,13.4,1505.2,350.7,-0.8,1.8,2471.328,13.29,0.022,344.7
2023-07-26T06:10:03,42.805,6.029,-0.023,0.032,-0.002,101.0,102.0,102.0,13.3,1505.2,343.4,-0.8,1.8,2471.369,13.29,0.039,324.3
2023-07-26T06:13:03,42.805,6.029,-0.003,0.045,0.0,103.0,100.0,101.0,13.3,1505.2,353.0,-0.8,1.8,2471.327,13.29,0.045,356.2
2023-07-26T06:16:03,42.805,6.029,-0.037,0.032,-0.013,100.0,101.0,102.0,13.3,1505.2,327.3,-0.8,1.8,2471.359,13.29,0.048,310.9
2023-07-26T06:19:03,42.805,6.029,-0.021,0.03,-0.015,102.0,102.0,101.0,13.4,1505.2,338.2,-0.8,1.8,2471.34,13.29,0.036,325.0
2023-07-26T06:22:03,42.805,6.029,-0.029,0.016,-0.031,103.0,99.0,101.0,13.4,1505.2,350.1,-0.8,1.8,2471.328,13.29,0.033,298.9
2023-07-26T06:25:03,42.805,6.029,-0.01,0.028,-0.054,101.0,102.0,101.0,13.4,1505.2,345.0,-0.8,1.8,2471.328,13.29,0.029,340.4
2023-07-26T06:28:03,42.805,6.029,-0.037,0.024,-0.038,102.0,101.0,100.0,13.4,1505.2,341.2,-0.8,1.8,2471.35,13.29,0.044,303.0
2023-07-26T06:31:03,42.805,6.029,-0.033,0.023,-0.031,102.0,102.0,100.0,13.4,1505.2,327.3,-0.8,1.8,2471.304,13.29,0.04,304.9
2023-07-26T06:34:03,42.805,6.029,-0.037,0.035,-0.05,102.0,101.0,101.0,13.4,1505.2,345.4,-0.7,1.8,2471.302,13.29,0.05,313.4
2023-07-26T06:37:03,42.805,6.029,-0.005,0.025,-0.03,103.0,100.0,101.0,13.3,1505.2,334.7,-0.8,1.8,2471.316,13.29,0.025,348.7
2023-07-26T06:40:03,42.805,6.029,-0.023,0.014,-0.025,102.0,101.0,101.0,13.4,1505.2,336.0,-0.8,1.8,2471.34,13.29,0.026,301.3
2023-07-26T06:43:03,42.805,6.029,-0.012,0.022,-0.008,103.0,102.0,101.0,13.4,1505.2,351.5,-0.8,1.8,2471.308,13.29,0.025,331.4
2023-07-26T06:46:03,42.805,6.029,-0.044,0.045,-0.054,102.0,102.0,101.0,13.4,1505.2,337.6,-0.7,1.8,2471.325,13.29,0.062,315.6
2023-07-26T06:49:03,42.805,6.029,-0.036,0.017,-0.014,102.0,101.0,101.0,13.3,1505.2,334.3,-0.7,1.8,2471.296,13.29,0.039,295.3
2023-07-26T06:52:03,42.805,6.029,-0.014,0.027,-0.023,101.0,102.0,101.0,13.4,1505.2,338.2,-0.8,1.8,2471.296,13.29,0.03,332.6
2023-07-26T06:55:03,42.805,6.029,0.004,0.003,-0.032,101.0,102.0,101.0,13.3,1505.2,352.1,-0.8,1.8,2471.309,13.29,0.005,53.1
2023-07-26T06:58:03,42.805,6.029,-0.021,0.023,-0.031,102.0,101.0,101.0,13.3,1505.2,347.0,-0.8,1.8,2471.311,13.29,0.031,317.6
2023-07-26T07:04:03,42.805,6.029,-0.021,0.025,0.0,101.0,102.0,101.0,13.3,1505.2,324.9,-0.7,1.8,2471.332,13.29,0.032,320.0
2023-07-26T07:07:03,42.805,6.029,0.013,0.011,-0.013,102.0,102.0,101.0,13.4,1505.2,338.8,-0.8,1.8,2471.346,13.29,0.017,49.8
2023-07-26T07:10:03,42.805,6.029,-0.022,0.014,-0.032,103.0,101.0,101.0,13.4,1505.2,340.7,-0.8,1.8,2471.307,13.29,0.026,302.5
2023-07-26T07:13:03,42.805,6.029,-0.023,0.031,-0.006,104.0,102.0,100.0,13.4,1505.2,329.3,-0.7,1.8,2471.29,13.29,0.038,323.4
2023-07-26T07:16:03,42.805,6.029,0.003,0.016,-0.013,102.0,102.0,101.0,13.4,1505.2,345.1,-0.8,1.8,2471.311,13.29,0.016,10.6
2023-07-26T07:19:03,42.805,6.029,-0.014,0.008,-0.028,102.0,103.0,102.0,13.4,1505.2,346.7,-0.8,1.8,2471.31,13.29,0.016,299.7
2023-07-26T07:22:03,42.805,6.029,-0.02,0.01,-0.052,102.0,102.0,100.0,13.3,1505.2,335.4,-0.8,1.8,2471.316,13.29,0.022,296.6
2023-07-26T07:25:03,42.805,6.029,-0.008,0.041,-0.012,101.0,102.0,101.0,13.4,1505.2,341.9,-0.7,1.8,2471.295,13.29,0.041,349.0
2023-07-26T07:28:03,42.805,6.029,-0.015,0.041,-0.022,102.0,101.0,100.0,13.4,1505.2,353.1,-0.7,1.8,2471.34,13.29,0.043,339.9
2023-07-26T07:31:03,42.805,6.029,-0.029,0.027,-0.02,101.0,102.0,101.0,13.4,1505.2,326.0,-0.8,1.8,2471.281,13.29,0.039,313.0
2023-07-26T07:34:03,42.805,6.029,-0.032,0.034,-0.034,103.0,103.0,101.0,13.3,1505.2,345.4,-0.8,1.8,2471.287,13.29,0.046,316.7
2023-07-26T07:37:03,42.805,6.029,-0.027,0.011,-0.026,102.0,102.0,101.0,13.3,1505.2,349.6,-0.8,1.8,2471.315,13.29,0.029,292.2
2023-07-26T07:40:03,42.805,6.029,-0.039,0.03,-0.05,102.0,103.0,102.0,13.4,1505.2,344.2,-0.7,1.8,2471.334,13.29,0.049,307.6
2023-07-26T07:43:03,42.805,6.029,-0.03,0.032,-0.025,102.0,102.0,101.0,13.4,1505.2,331.4,-0.8,1.8,2471.312,13.29,0.043,316.9
2023-07-26T07:46:03,42.805,6.029,0.003,0.021,-0.028,102.0,102.0,101.0,13.3,1505.2,352.8,-0.8,1.8,2471.359,13.29,0.021,8.1
2023-07-26T07:49:03,42.805,6.029,-0.005,0.008,-0.03,102.0,103.0,101.0,13.3,1505.2,322.1,-0.7,1.8,2471.311,13.29,0.009,328.0
2023-07-26T07:52:03,42.805,6.029,-0.054,0.033,-0.041,102.0,101.0,102.0,13.4,1505.2,321.4,-0.8,1.8,2471.312,13.29,0.063,301.4
2023-07-26T07:55:03,42.805,6.029,-0.03,0.026,-0.029,102.0,103.0,101.0,13.4,1505.2,340.8,-0.8,1.8,2471.333,13.29,0.039,310.9
2023-07-26T07:58:03,42.805,6.029,-0.038,0.047,-0.013,102.0,102.0,101.0,13.4,1505.2,345.7,-0.8,1.8,2471.308,13.29,0.06,321.0
2023-07-26T08:04:03,42.805,6.029,-0.023,0.054,0.001,102.0,102.0,101.0,13.3,1505.2,343.8,-0.8,1.8,2471.343,13.29,0.058,336.9
2023-07-26T08:07:03,42.805,6.029,-0.018,0.022,-0.037,102.0,101.0,101.0,13.3,1505.2,333.4,-0.7,1.8,2471.351,13.29,0.028,320.7
2023-07-26T08:10:03,42.805,6.029,-0.038,0.053,-0.018,102.0,102.0,101.0,13.4,1505.2,352.6,-0.8,1.8,2471.334,13.29,0.065,324.4
2023-07-26T08:13:03,42.805,6.029,-0.021,0.021,-0.025,101.0,103.0,101.0,13.4,1505.2,349.9,-0.7,1.8,2471.359,13.29,0.029,315.0
2023-07-26T08:16:03,42.805,6.029,-0.019,0.009,-0.05,102.0,104.0,100.0,13.3,1505.2,334.4,-0.8,1.8,2471.304,13.29,0.021,295.3
2023-07-26T08:19:03,42.805,6.029,-0.03,0.016,-0.005,103.0,101.0,99.0,13.4,1505.2,343.7,-0.8,1.8,2471.311,13.29,0.034,298.1
2023-07-26T08:22:03,42.805,6.029,-0.009,0.035,0.0,102.0,102.0,102.0,13.4,1505.2,351.5,-0.8,1.8,2471.3,13.29,0.036,345.6
2023-07-26T08:25:03,42.805,6.029,-0.016,0.022,-0.013,101.0,101.0,101.0,13.3,1505.2,333.4,-0.8,1.8,2471.297,13.29,0.027,324.0
2023-07-26T08:28:03,42.805,6.029,-0.029,0.02,-0.05,102.0,102.0,101.0,13.4,1505.2,354.2,-0.7,1.8,2471.34,13.29,0.035,304.6
2023-07-26T08:31:03,42.805,6.029,-0.028,0.033,-0.03,103.0,101.0,101.0,13.3,1505.2,333.9,-0.8,1.8,2471.295,13.29,0.043,319.7
2023-07-26T08:34:03,42.805,6.029,-0.023,0.042,-0.018,102.0,102.0,101.0,13.3,1505.2,350.1,-0.8,1.8,2471.331,13.29,0.047,331.3
2023-07-26T08:37:03,42.805,6.029,-0.062,0.007,-0.053,103.0,101.0,101.0,13.4,1505.2,323.9,-0.8,1.8,2471.346,13.29,0.062,276.4
2023-07-26T08:40:03,42.805,6.029,-0.035,0.019,-0.056,101.0,101.0,102.0,13.4,1505.2,336.0,-0.8,1.8,2471.317,13.29,0.039,298.5
2023-07-26T08:43:03,42.805,6.029,-0.013,0.043,-0.044,101.0,102.0,101.0,13.4,1505.2,348.0,-0.7,1.8,2471.321,13.29,0.044,343.2
2023-07-26T08:46:03,42.805,6.029,-0.021,0.014,-0.003,100.0,102.0,102.0,13.3,1505.2,331.8,-0.7,1.8,2471.35,13.29,0.025,303.7
2023-07-26T08:49:03,42.805,6.029,-0.031,0.016,-0.059,101.0,101.0,100.0,13.4,1505.2,333.8,-0.8,1.8,2471.305,13.29,0.034,297.3
2023-07-26T08:52:03,42.805,6.029,-0.025,0.021,-0.004,102.0,102.0,100.0,13.4,1505.2,342.6,-0.8,1.8,2471.301,13.29,0.032,310.0
2023-07-26T08:55:03,42.805,6.029,-0.044,0.032,-0.031,100.0,102.0,101.0,13.4,1505.2,333.8,-0.8,1.8,2471.347,13.29,0.054,306.0
2023-07-26T08:58:03,42.805,6.029,-0.021,0.015,-0.031,101.0,102.0,101.0,13.4,1505.2,330.4,-0.8,1.8,2471.336,13.29,0.025,305.5
2023-07-26T09:04:03,42.805,6.029,-0.047,0.016,-0.028,102.0,102.0,101.0,13.3,1505.2,331.1,-0.8,1.8,2471.382,13.28,0.049,288.8
2023-07-26T09:07:03,42.805,6.029,-0.031,0.038,-0.029,102.0,101.0,101.0,13.4,1505.2,352.3,-0.8,1.8,2471.38,13.29,0.049,320.8
2023-07-26T09:10:03,42.805,6.029,-0.019,0.018,0.002,103.0,101.0,100.0,13.4,1505.2,324.8,-0.7,1.8,2471.39,13.29,0.026,313.5
2023-07-26T09:13:03,42.805,6.029,-0.014,0.04,-0.025,101.0,100.0,102.0,13.4,1505.2,335.2,-0.8,1.8,2471.393,13.29,0.042,340.7
2023-07-26T09:16:03,42.805,6.029,-0.002,0.004,-0.031,102.0,101.0,101.0,13.4,1505.2,335.5,-0.8,1.8,2471.338,13.29,0.004,333.4
2023-07-26T09:19:03,42.805,6.029,-0.019,0.006,-0.061,101.0,102.0,101.0,13.3,1505.2,330.2,-0.8,1.8,2471.323,13.29,0.019,287.5
2023-07-26T09:22:03,42.805,6.029,0.005,0.023,0.0,101.0,102.0,101.0,13.4,1505.2,339.5,-0.7,1.8,2471.365,13.29,0.023,12.3
2023-07-26T09:25:03,42.805,6.029,-0.059,0.038,0.014,103.0,101.0,100.0,13.4,1505.2,322.1,-0.8,1.8,2471.331,13.29,0.07,302.8
2023-07-26T09:28:03,42.805,6.029,-0.026,0.024,-0.028,102.0,102.0,101.0,13.4,1505.2,327.4,-0.7,1.8,2471.322,13.29,0.035,312.7
2023-07-26T09:31:03,42.805,6.029,-0.004,0.014,-0.031,101.0,102.0,101.0,13.4,1505.2,329.2,-0.8,1.8,2471.34,13.29,0.014,344.1
2023-07-26T09:34:03,42.805,6.029,-0.023,0.056,-0.004,101.0,102.0,101.0,13.3,1505.2,343.1,-0.8,1.8,2471.294,13.29,0.06,337.7
2023-07-26T09:37:03,42.805,6.029,-0.037,0.016,-0.036,102.0,102.0,101.0,13.4,1505.2,325.5,-0.8,1.8,2471.336,13.29,0.04,293.4
2023-07-26T09:40:03,42.805,6.029,0.0,0.029,-0.019,101.0,102.0,101.0,13.3,1505.2,341.9,-0.8,1.8,2471.328,13.29,0.028,0.0
2023-07-26T09:43:03,42.805,6.029,-0.041,0.011,-0.056,103.0,101.0,101.0,13.3,1505.2,331.5,-0.7,1.8,2471.313,13.29,0.042,285.0
2023-07-26T09:46:03,42.805,6.029,-0.03,0.039,-0.003,101.0,102.0,103.0,13.3,1505.2,321.4,-0.8,1.8,2471.34,13.29,0.049,322.4
2023-07-26T09:49:03,42.805,6.029,-0.035,0.031,-0.012,100.0,102.0,101.0,13.3,1505.2,347.3,-0.8,1.8,2471.382,13.29,0.046,311.5
2023-07-26T09:52:03,42.805,6.029,-0.029,0.024,-0.05,102.0,101.0,101.0,13.3,1505.2,352.8,-0.8,1.8,2471.361,13.29,0.037,309.6
2023-07-26T09:55:03,42.805,6.029,-0.036,0.03,-0.049,102.0,103.0,100.0,13.4,1505.2,323.6,-0.8,1.8,2471.379,13.29,0.046,309.8